Location: Clayton (historical)
(34.0300°N, 118.0259°W)
Time: 08:45:51
(UTC+00:00)

DELTA 2 R/B (1) - Pass Details

Date: 29 October 2020
Orbit: 790 x 803 km, 39.6° (Epoch: 30 November)

Event Time Altitude Azimuth Distance (km) Brightness Sun altitude
Exits shadow 12:19:27 49° 229° (SW) 1,025 3.8 -23.3°
Maximum altitude 12:19:56 50° 211° (SSW) 1,007 3.8 -23.2°
Drops below altitude 10° 12:25:18 10° 137° (SE) 2,364 6.6 -22.1°
Sets 12:27:51 0° 132° (SE) 3,294 7.6 -21.6°
